DMSP 5D-2 F13 DEB, 40511

Orbit data source: Space-Track

DMSP 5D-2 F13 DEB, 40511 is space debris in SSO originally from a launch on Fri, 24 Mar 1995 UTC launched from the Air Force Western Test Range (AFWTR). Debris objects in space refer to the collection of defunct objects orbiting the Earth. Examples of debris include non-operational satellites, rocket bodies, and fragments generated from explosions, collisions, or faulty payload assembly.

Loading next visibility...
Identifier
40511, 1995-015CX
Orbit
SSO
Country
Flag of USUS
Related business
Manufacturer
Unknown
Mission
Spacecraft
Bus & Motor
Unknown
Mass
Unknown
Launch date (UTC)
1995-03-24 (31 years ago)
Launch vehicle
Unknown
Launch site
Air Force Western Test Range (AFWTR)
Object type
Payload
Rocket body
Debris
Shape & HBR
Unknown shape, 0.1 m
Radar Cross Section
Small (<0.1 m²)

Expand to show TLE details & history
Last TLE update: 23 hours ago

TLE from 23 hours ago
0 DMSP 5D-2 F13 DEB
1 40511U 95015CX  25338.40287514  .00029475  00000-0  82764-2 0  9999
2 40511  98.7725  23.6235 0012934  60.2638 299.9838 14.45803906554626
Epoch: 2025-12-04T09:40Z
TLE epoch observation values (Epoch: 2025-12-04T09:40:08.412Z)
Latitude
0.00002°
Longitude
165.12862°
Altitude
737.742 km
Speed
7.488 km/s
True Right ascension
01h 34m 29s
True Declination
0° 00' 00"
Sunlit
Object was in full shadow at epoch
Visualization orbit readout
Latitude
Unknown
Longitude
Unknown
Altitude
Unknown
Speed
Unknown
Apparent Right ascension
Unknown
Apparent Declination
Unknown
Sunlit
N/A
Visualization observer readout
Local Sidereal Time
06:20:14
Azimuth
Unknown
Elevation
Unknown
Doppler factor
Unknown
Orbital elements
Apogee altitude
745.716 km
Perigee altitude
727.312 km
Semi-major axis
7,114.651 km
Eccentricity
0.00129
Inclination
98.7725°
RAAN
23.6235°
Arg. of periapsis
60.2638°
True anomaly
299.85532°
Mean anomaly
299.9838°
Eccentric anomaly
299.91957°
Mean motion
3.6167 °/min
Orbital period
99.54 mins
BSTAR
0.0082764

Documentation

Showing up to 5 results
|